Skip Page Navigation
NASA JPL Caltech
NASA Logo - Jet Propulsion Laboratory + View the NASA Portal
+ Near-Earth Object (NEO) Program
Search JPL
JPL Home Earth Solar System Stars & Galaxies Technology
JPL Solar System Dynamics
BODIES ORBITS EPHEMERIDES TOOLS PHYSICAL DATA DISCOVERY FAQ SITE MAP
JPL Small-Body Database Browser
Search: [ help ]  
96391 (1998 CZ1)
Classification: Main-belt Asteroid          SPK-ID: 2096391
Ephemeris | Orbit Diagram | Orbital Elements | Physical Parameters | Discovery Circumstances | Close-Approach Data ]

[ show orbit diagram ]
Orbital Elements at Epoch 2457000.5 (2014-Dec-09.0) TDB
Reference: JPL 7 (heliocentric ecliptic J2000)
 Element Value Uncertainty (1-sigma)   Units 
e .1118981177604243 9.8413e-08  
a 2.606363820954609 3.7004e-08 AU
q 2.314716615190921 2.6013e-07 AU
i 13.41888966819494 1.1334e-05 deg
node 94.82867010951041 3.8897e-05 deg
peri 139.5998291604338 7.7097e-05 deg
M 320.1964063642942 7.8158e-05 deg
tp 2457170.430277919602
(2015-May-27.93027792)
0.00033634 JED
period 1536.919018190858
4.21
3.273e-05
8.961e-08
d
yr
n .2342348528055591 4.9883e-09 deg/d
Q 2.898011026718298 4.1144e-08 AU
  Orbit Determination Parameters
   # obs. used (total)      507  
   data-arc span      7239 days (19.82 yr)  
   first obs. used      1994-06-06  
   last obs. used      2014-04-01  
   planetary ephem.      DE431  
   SB-pert. ephem.      SB431-BIG16  
   condition code      0  
   fit RMS      .60051  
   data source      ORB  
   producer      Otto Matic  
   solution date      2014-Jun-16 16:06:57  

Additional Information
 Earth MOID = 1.31883 AU 
 T_jup = 3.365 
[ show covariance matrix ]

Ephemeris | Orbit Diagram | Orbital Elements | Physical Parameters | Discovery Circumstances | Close-Approach Data ]

Physical Parameter Table
Parameter Symbol Value Units Sigma Reference Notes
absolute magnitude H 14.2 mag n/a MPO253918  

96391 (1998 CZ1)          Discovered 1998-Feb-06 by BAO Schmidt CCD Asteroid Program at Xinglong (327)
Reference: 20050224/Numbers.arcLast Updated: 2005-02-28

[ show close-approach data ]
Alternate Designations
 1998 CZ1 = 1994 LK7 
Ephemeris | Orbit Diagram | Orbital Elements | Physical Parameters | Discovery Circumstances | Close-Approach Data ]
ABOUT SSD CREDITS/AWARDS PRIVACY/COPYRIGHT GLOSSARY LINKS
FirstGov 2014-Sep-19 09:50 UT
(server date/time)  
NASA Home Page
Site Manager:   Donald K. Yeomans
Webmaster  Alan B. Chamberlin